Time,TemperatureF,DewpointF,PressureIn,WindDirection,WindDirectionDegrees,WindSpeedMPH,WindSpeedGustMPH,Humidity,HourlyPrecipIn,Conditions,Clouds,dailyrainin,SoftwareType,DateUTC
2013-05-04 00:02:00,63.1,49.8,29.83,West,279,0.0,1.0,62,0.00,,,0.00,meteohub,2013-05-04 07:02:00,
2013-05-04 00:07:00,63.1,50.4,29.83,West,279,0.0,1.0,63,0.00,,,0.00,meteohub,2013-05-04 07:07:00,
2013-05-04 00:12:00,63.0,50.2,29.83,West,279,0.0,1.0,63,0.00,,,0.00,meteohub,2013-05-04 07:12:00,
2013-05-04 00:17:00,63.0,50.5,29.83,West,279,0.0,1.0,64,0.00,,,0.00,meteohub,2013-05-04 07:17:00,
2013-05-04 00:22:00,62.8,50.4,29.83,West,279,0.0,1.0,64,0.00,,,0.00,meteohub,2013-05-04 07:22:00,
2013-05-04 00:27:00,62.4,50.0,29.83,West,279,0.0,1.0,64,0.00,,,0.00,meteohub,2013-05-04 07:27:00,
2013-05-04 00:32:00,62.1,50.2,29.83,West,279,1.0,1.0,65,0.00,,,0.00,meteohub,2013-05-04 07:32:00,
2013-05-04 00:37:00,61.5,50.5,29.82,West,279,1.0,1.0,67,0.00,,,0.00,meteohub,2013-05-04 07:37:00,
2013-05-04 00:42:00,61.3,50.7,29.82,West,279,0.0,2.0,68,0.00,,,0.00,meteohub,2013-05-04 07:42:00,
2013-05-04 00:47:00,61.0,50.7,29.82,West,279,1.0,2.0,69,0.00,,,0.00,meteohub,2013-05-04 07:47:00,
2013-05-04 00:52:00,60.6,50.7,29.82,West,279,0.0,2.0,70,0.00,,,0.00,meteohub,2013-05-04 07:52:00,
2013-05-04 00:57:00,60.4,51.1,29.82,West,279,0.0,1.0,71,0.00,,,0.00,meteohub,2013-05-04 07:57:00,
2013-05-04 01:02:00,60.3,50.9,29.82,West,279,0.0,2.0,71,0.00,,,0.00,meteohub,2013-05-04 08:02:00,
2013-05-04 01:07:00,60.3,51.3,29.81,West,279,0.0,2.0,72,0.00,,,0.00,meteohub,2013-05-04 08:07:00,
2013-05-04 01:12:00,60.3,51.3,29.81,West,279,0.0,2.0,72,0.00,,,0.00,meteohub,2013-05-04 08:12:00,
2013-05-04 01:17:00,60.1,51.1,29.81,West,279,0.0,2.0,72,0.00,,,0.00,meteohub,2013-05-04 08:17:00,
2013-05-04 01:22:00,59.7,50.7,29.81,West,279,0.0,2.0,72,0.00,,,0.00,meteohub,2013-05-04 08:22:00,
2013-05-04 01:27:00,59.5,50.9,29.81,West,279,0.0,2.0,73,0.00,,,0.00,meteohub,2013-05-04 08:27:00,
2013-05-04 01:32:00,59.2,50.9,29.81,West,279,0.0,3.0,74,0.00,,,0.00,meteohub,2013-05-04 08:32:00,
2013-05-04 01:37:00,58.8,50.9,29.80,West,279,0.0,3.0,75,0.00,,,0.00,meteohub,2013-05-04 08:37:00,
2013-05-04 01:42:00,58.8,51.3,29.80,West,279,1.0,2.0,76,0.00,,,0.00,meteohub,2013-05-04 08:42:00,
2013-05-04 01:47:00,58.6,51.1,29.79,West,279,0.0,2.0,76,0.00,,,0.00,meteohub,2013-05-04 08:47:00,
2013-05-04 01:52:00,58.6,51.1,29.79,West,279,0.0,1.0,76,0.00,,,0.00,meteohub,2013-05-04 08:52:00,
2013-05-04 01:57:00,58.5,50.9,29.79,West,279,0.0,1.0,76,0.00,,,0.00,meteohub,2013-05-04 08:57:00,
2013-05-04 02:02:00,58.5,51.3,29.79,West,279,0.0,0.0,77,0.00,,,0.00,meteohub,2013-05-04 09:02:00,
2013-05-04 02:07:00,58.5,51.3,29.79,West,279,0.0,0.0,77,0.00,,,0.00,meteohub,2013-05-04 09:07:00,
2013-05-04 02:12:00,58.5,50.9,29.79,West,279,0.0,0.0,76,0.00,,,0.00,meteohub,2013-05-04 09:12:00,
2013-05-04 02:17:00,58.5,50.9,29.79,West,279,0.0,0.0,76,0.00,,,0.00,meteohub,2013-05-04 09:17:00,
2013-05-04 02:22:00,58.5,50.9,29.79,West,279,0.0,0.0,76,0.00,,,0.00,meteohub,2013-05-04 09:22:00,
2013-05-04 02:27:00,58.6,51.1,29.79,West,279,0.0,1.0,76,0.00,,,0.00,meteohub,2013-05-04 09:27:00,
2013-05-04 02:32:00,58.6,51.1,29.79,West,279,0.0,1.0,76,0.00,,,0.00,meteohub,2013-05-04 09:32:00,
2013-05-04 02:37:00,58.6,51.1,29.79,West,279,0.0,1.0,76,0.00,,,0.00,meteohub,2013-05-04 09:37:00,
2013-05-04 02:42:00,58.6,51.1,29.79,West,279,0.0,1.0,76,0.00,,,0.00,meteohub,2013-05-04 09:42:00,
2013-05-04 02:47:00,58.6,51.1,29.79,West,279,0.0,1.0,76,0.00,,,0.00,meteohub,2013-05-04 09:47:00,
2013-05-04 02:52:00,58.5,51.3,29.79,West,279,0.0,1.0,77,0.00,,,0.00,meteohub,2013-05-04 09:52:00,
2013-05-04 02:57:00,58.3,51.1,29.79,West,279,0.0,1.0,77,0.00,,,0.00,meteohub,2013-05-04 09:57:00,
2013-05-04 03:02:00,58.3,51.4,29.78,West,279,0.0,1.0,78,0.00,,,0.00,meteohub,2013-05-04 10:02:00,
2013-05-04 03:07:00,58.3,51.1,29.78,West,279,0.0,1.0,77,0.00,,,0.00,meteohub,2013-05-04 10:07:00,
2013-05-04 03:12:00,58.3,51.1,29.78,West,279,0.0,1.0,77,0.00,,,0.00,meteohub,2013-05-04 10:12:00,
2013-05-04 03:17:00,58.3,51.1,29.78,West,279,0.0,1.0,77,0.00,,,0.00,meteohub,2013-05-04 10:17:00,
2013-05-04 03:22:00,58.6,51.4,29.78,West,279,0.0,1.0,77,0.00,,,0.00,meteohub,2013-05-04 10:22:00,
2013-05-04 03:27:00,59.2,51.3,29.78,West,279,0.0,1.0,75,0.00,,,0.00,meteohub,2013-05-04 10:27:00,
2013-05-04 03:32:00,59.2,51.3,29.78,West,279,0.0,1.0,75,0.00,,,0.00,meteohub,2013-05-04 10:32:00,
2013-05-04 03:37:00,59.2,51.3,29.78,West,279,0.0,0.0,75,0.00,,,0.00,meteohub,2013-05-04 10:37:00,
2013-05-04 03:42:00,59.4,51.4,29.78,West,279,0.0,1.0,75,0.00,,,0.00,meteohub,2013-05-04 10:42:00,
2013-05-04 03:47:00,59.4,51.4,29.78,West,279,0.0,1.0,75,0.00,,,0.00,meteohub,2013-05-04 10:47:00,
2013-05-04 03:52:00,59.4,51.1,29.78,West,279,0.0,1.0,74,0.00,,,0.00,meteohub,2013-05-04 10:52:00,
2013-05-04 03:57:00,59.2,51.3,29.78,West,279,0.0,1.0,75,0.00,,,0.00,meteohub,2013-05-04 10:57:00,
2013-05-04 04:02:00,58.8,50.9,29.78,West,279,0.0,1.0,75,0.00,,,0.00,meteohub,2013-05-04 11:02:00,
2013-05-04 04:07:00,58.8,50.9,29.78,West,279,0.0,1.0,75,0.00,,,0.00,meteohub,2013-05-04 11:07:00,
2013-05-04 04:12:00,58.8,50.9,29.78,West,279,0.0,1.0,75,0.00,,,0.00,meteohub,2013-05-04 11:12:00,
2013-05-04 04:17:00,58.8,50.9,29.78,West,279,0.0,1.0,75,0.00,,,0.00,meteohub,2013-05-04 11:17:00,
2013-05-04 04:22:00,58.8,50.9,29.78,West,279,0.0,2.0,75,0.00,,,0.00,meteohub,2013-05-04 11:22:00,
2013-05-04 04:27:00,58.8,50.9,29.78,West,279,0.0,2.0,75,0.00,,,0.00,meteohub,2013-05-04 11:27:00,
2013-05-04 04:32:00,58.6,50.7,29.77,West,279,0.0,2.0,75,0.00,,,0.00,meteohub,2013-05-04 11:32:00,
2013-05-04 04:37:00,58.5,50.9,29.77,West,279,0.0,2.0,76,0.00,,,0.00,meteohub,2013-05-04 11:37:00,
2013-05-04 04:42:00,58.3,50.7,29.77,West,279,0.0,2.0,76,0.00,,,0.00,meteohub,2013-05-04 11:42:00,
2013-05-04 04:47:00,58.5,50.9,29.77,West,279,0.0,1.0,76,0.00,,,0.00,meteohub,2013-05-04 11:47:00,
2013-05-04 04:52:00,58.3,50.7,29.77,West,279,0.0,1.0,76,0.00,,,0.00,meteohub,2013-05-04 11:52:00,
2013-05-04 04:57:00,58.3,50.7,29.77,West,279,0.0,1.0,76,0.00,,,0.00,meteohub,2013-05-04 11:57:00,
2013-05-04 05:07:00,58.3,51.1,29.77,West,279,0.0,1.0,77,0.00,,,0.00,meteohub,2013-05-04 12:07:00,
2013-05-04 05:12:00,58.5,50.9,29.77,West,279,0.0,0.0,76,0.00,,,0.00,meteohub,2013-05-04 12:12:00,
2013-05-04 05:17:00,58.8,50.9,29.77,West,279,0.0,0.0,75,0.00,,,0.00,meteohub,2013-05-04 12:17:00,
2013-05-04 05:22:00,59.0,51.1,29.77,West,279,0.0,1.0,75,0.00,,,0.00,meteohub,2013-05-04 12:22:00,
2013-05-04 05:27:00,59.2,50.9,29.76,West,279,0.0,2.0,74,0.00,,,0.00,meteohub,2013-05-04 12:27:00,
2013-05-04 05:37:00,59.2,50.9,29.76,West,279,0.0,1.0,74,0.00,,,0.00,meteohub,2013-05-04 12:37:00,
2013-05-04 05:42:00,58.8,50.5,29.76,West,279,0.0,1.0,74,0.00,,,0.00,meteohub,2013-05-04 12:42:00,
2013-05-04 05:47:00,59.0,51.1,29.76,West,279,0.0,1.0,75,0.00,,,0.00,meteohub,2013-05-04 12:47:00,
2013-05-04 05:52:00,59.0,50.7,29.76,West,279,0.0,1.0,74,0.00,,,0.00,meteohub,2013-05-04 12:52:00,
2013-05-04 05:57:00,59.0,50.7,29.76,West,279,0.0,0.0,74,0.00,,,0.00,meteohub,2013-05-04 12:57:00,
2013-05-04 06:02:00,58.8,50.5,29.76,West,279,0.0,0.0,74,0.00,,,0.00,meteohub,2013-05-04 13:02:00,
2013-05-04 06:07:00,58.6,50.4,29.76,West,279,0.0,0.0,74,0.00,,,0.00,meteohub,2013-05-04 13:07:00,
2013-05-04 06:12:00,58.6,50.4,29.76,West,279,0.0,1.0,74,0.00,,,0.00,meteohub,2013-05-04 13:12:00,
2013-05-04 06:17:00,58.6,50.4,29.76,West,279,0.0,1.0,74,0.00,,,0.00,meteohub,2013-05-04 13:17:00,
2013-05-04 06:22:00,59.0,50.7,29.75,West,279,0.0,1.0,74,0.00,,,0.00,meteohub,2013-05-04 13:22:00,
2013-05-04 06:27:00,59.0,50.7,29.75,West,279,0.0,1.0,74,0.00,,,0.00,meteohub,2013-05-04 13:27:00,
2013-05-04 06:32:00,58.8,50.2,29.75,West,279,0.0,1.0,73,0.00,,,0.00,meteohub,2013-05-04 13:32:00,
2013-05-04 06:37:00,59.0,50.7,29.75,West,279,0.0,1.0,74,0.00,,,0.00,meteohub,2013-05-04 13:37:00,
2013-05-04 06:42:00,59.2,50.5,29.75,West,279,0.0,1.0,73,0.00,,,0.00,meteohub,2013-05-04 13:42:00,
2013-05-04 06:47:00,59.4,50.4,29.76,West,279,0.0,1.0,72,0.00,,,0.00,meteohub,2013-05-04 13:47:00,
2013-05-04 06:52:00,59.4,50.4,29.76,West,279,0.0,2.0,72,0.00,,,0.00,meteohub,2013-05-04 13:52:00,
2013-05-04 06:57:00,59.4,50.0,29.76,West,279,0.0,2.0,71,0.00,,,0.00,meteohub,2013-05-04 13:57:00,
2013-05-04 07:02:00,59.5,50.5,29.75,West,279,0.0,2.0,72,0.00,,,0.00,meteohub,2013-05-04 14:02:00,
2013-05-04 07:07:00,59.5,50.5,29.75,West,279,0.0,1.0,72,0.00,,,0.00,meteohub,2013-05-04 14:07:00,
2013-05-04 07:12:00,60.1,50.7,29.75,West,279,0.0,0.0,71,0.00,,,0.00,meteohub,2013-05-04 14:12:00,
2013-05-04 07:17:00,60.4,50.5,29.75,West,279,0.0,0.0,70,0.00,,,0.00,meteohub,2013-05-04 14:17:00,
2013-05-04 07:22:00,61.0,50.7,29.75,West,279,0.0,0.0,69,0.00,,,0.00,meteohub,2013-05-04 14:22:00,
2013-05-04 07:27:00,61.0,50.7,29.75,West,279,0.0,2.0,69,0.00,,,0.00,meteohub,2013-05-04 14:27:00,
2013-05-04 07:32:00,61.3,51.1,29.75,West,279,0.0,2.0,69,0.00,,,0.00,meteohub,2013-05-04 14:32:00,
2013-05-04 07:37:00,62.1,51.4,29.75,West,279,0.0,2.0,68,0.00,,,0.00,meteohub,2013-05-04 14:37:00,
2013-05-04 07:42:00,62.4,50.9,29.75,West,279,1.0,0.0,66,0.00,,,0.00,meteohub,2013-05-04 14:42:00,
2013-05-04 07:47:00,62.6,51.1,29.75,West,279,0.0,2.0,66,0.00,,,0.00,meteohub,2013-05-04 14:47:00,
2013-05-04 07:52:00,63.1,51.6,29.75,West,279,0.0,2.0,66,0.00,,,0.00,meteohub,2013-05-04 14:52:00,
2013-05-04 07:57:00,63.7,51.3,29.75,West,279,0.0,2.0,64,0.00,,,0.00,meteohub,2013-05-04 14:57:00,
2013-05-04 08:02:00,64.0,51.3,29.75,West,279,0.0,0.0,63,0.00,,,0.00,meteohub,2013-05-04 15:02:00,
2013-05-04 08:07:00,64.0,50.7,29.75,West,279,0.0,1.0,62,0.00,,,0.00,meteohub,2013-05-04 15:07:00,
2013-05-04 08:12:00,64.0,51.3,29.75,West,279,1.0,1.0,63,0.00,,,0.00,meteohub,2013-05-04 15:12:00,
2013-05-04 08:17:00,64.6,51.3,29.74,West,279,1.0,1.0,62,0.00,,,0.00,meteohub,2013-05-04 15:17:00,
2013-05-04 08:22:00,64.9,51.1,29.74,West,279,0.0,2.0,61,0.00,,,0.00,meteohub,2013-05-04 15:22:00,
2013-05-04 08:27:00,65.7,50.9,29.74,West,279,0.0,2.0,59,0.00,,,0.00,meteohub,2013-05-04 15:27:00,
2013-05-04 08:32:00,65.8,50.2,29.74,West,279,1.0,2.0,57,0.00,,,0.00,meteohub,2013-05-04 15:32:00,
2013-05-04 08:37:00,66.0,50.4,29.74,West,279,0.0,2.0,57,0.00,,,0.00,meteohub,2013-05-04 15:37:00,
2013-05-04 08:42:00,66.9,50.7,29.74,West,279,2.0,2.0,56,0.00,,,0.00,meteohub,2013-05-04 15:42:00,
2013-05-04 08:47:00,67.3,50.5,29.73,West,279,0.0,2.0,55,0.00,,,0.00,meteohub,2013-05-04 15:47:00,
2013-05-04 08:52:00,67.8,50.0,29.73,West,279,1.0,3.0,53,0.00,,,0.00,meteohub,2013-05-04 15:52:00,
2013-05-04 08:57:00,68.2,50.9,29.73,West,279,0.0,3.0,54,0.00,,,0.00,meteohub,2013-05-04 15:57:00,
2013-05-04 09:02:00,69.1,54.7,29.73,West,279,0.0,4.0,60,0.00,,,0.00,meteohub,2013-05-04 16:02:00,
2013-05-04 09:07:00,69.1,54.1,29.73,West,281,0.0,4.0,59,0.00,,,0.00,meteohub,2013-05-04 16:07:00,
2013-05-04 09:12:00,68.5,54.1,29.73,WNW,284,2.0,3.0,60,0.00,,,0.00,meteohub,2013-05-04 16:12:00,
2013-05-04 09:17:00,68.5,54.1,29.73,WNW,284,1.0,3.0,60,0.00,,,0.00,meteohub,2013-05-04 16:17:00,
2013-05-04 09:22:00,68.4,54.0,29.73,WNW,290,1.0,3.0,60,0.00,,,0.00,meteohub,2013-05-04 16:22:00,
2013-05-04 09:27:00,68.4,54.3,29.73,WNW,290,0.0,3.0,61,0.00,,,0.00,meteohub,2013-05-04 16:27:00,
2013-05-04 09:32:00,69.1,54.1,29.73,WNW,290,0.0,2.0,59,0.00,,,0.00,meteohub,2013-05-04 16:32:00,
2013-05-04 09:37:00,70.3,54.0,29.73,WNW,284,1.0,2.0,56,0.00,,,0.00,meteohub,2013-05-04 16:37:00,
2013-05-04 09:42:00,70.9,54.0,29.73,West,279,0.0,2.0,55,0.00,,,0.00,meteohub,2013-05-04 16:42:00,
2013-05-04 09:47:00,71.2,53.2,29.72,West,279,0.0,2.0,53,0.00,,,0.00,meteohub,2013-05-04 16:47:00,
2013-05-04 09:52:00,71.4,52.9,29.72,West,279,1.0,2.0,52,0.00,,,0.00,meteohub,2013-05-04 16:52:00,
2013-05-04 09:57:00,71.4,52.9,29.72,West,279,2.0,3.0,52,0.00,,,0.00,meteohub,2013-05-04 16:57:00,
2013-05-04 10:02:00,72.1,53.1,29.72,West,279,0.0,3.0,51,0.00,,,0.00,meteohub,2013-05-04 17:02:00,
2013-05-04 10:07:00,72.1,53.1,29.72,West,279,0.0,3.0,51,0.00,,,0.00,meteohub,2013-05-04 17:07:00,
2013-05-04 10:12:00,72.7,52.9,29.71,West,279,0.0,3.0,50,0.00,,,0.00,meteohub,2013-05-04 17:12:00,
2013-05-04 10:17:00,72.9,53.1,29.71,West,279,0.0,3.0,50,0.00,,,0.00,meteohub,2013-05-04 17:17:00,
2013-05-04 10:22:00,73.2,52.9,29.71,West,279,0.0,3.0,49,0.00,,,0.00,meteohub,2013-05-04 17:22:00,
2013-05-04 10:27:00,73.9,52.5,29.71,West,279,1.0,3.0,47,0.00,,,0.00,meteohub,2013-05-04 17:27:00,
2013-05-04 10:32:00,74.1,52.5,29.71,West,279,1.0,4.0,47,0.00,,,0.00,meteohub,2013-05-04 17:32:00,
2013-05-04 10:37:00,74.5,51.8,29.71,West,279,3.0,4.0,45,0.00,,,0.00,meteohub,2013-05-04 17:37:00,
2013-05-04 10:42:00,74.3,50.9,29.71,West,279,1.0,4.0,44,0.00,,,0.00,meteohub,2013-05-04 17:42:00,
2013-05-04 10:47:00,74.1,51.4,29.71,West,279,2.0,5.0,45,0.00,,,0.00,meteohub,2013-05-04 17:47:00,
2013-05-04 10:52:00,73.8,51.1,29.71,West,279,0.0,5.0,45,0.00,,,0.00,meteohub,2013-05-04 17:52:00,
2013-05-04 10:57:00,73.6,51.4,29.71,West,279,3.0,5.0,46,0.00,,,0.00,meteohub,2013-05-04 17:57:00,
2013-05-04 11:02:00,73.6,50.9,29.71,West,279,1.0,5.0,45,0.00,,,0.00,meteohub,2013-05-04 18:02:00,
2013-05-04 11:07:00,73.6,50.4,29.71,West,279,3.0,5.0,44,0.00,,,0.00,meteohub,2013-05-04 18:07:00,
2013-05-04 11:12:00,73.2,50.0,29.71,NW,315,0.0,5.0,44,0.00,,,0.00,meteohub,2013-05-04 18:12:00,
2013-05-04 11:17:00,73.2,50.0,29.71,West,281,2.0,7.0,44,0.00,,,0.00,meteohub,2013-05-04 18:17:00,
2013-05-04 11:22:00,73.2,50.0,29.71,West,279,3.0,7.0,44,0.00,,,0.00,meteohub,2013-05-04 18:22:00,
2013-05-04 11:27:00,72.9,50.4,29.71,West,279,2.0,7.0,45,0.00,,,0.00,meteohub,2013-05-04 18:27:00,
2013-05-04 11:32:00,72.7,50.7,29.71,West,280,3.0,7.0,46,0.00,,,0.00,meteohub,2013-05-04 18:32:00,
2013-05-04 11:37:00,72.5,50.5,29.71,NE,48,3.0,7.0,46,0.00,,,0.00,meteohub,2013-05-04 18:37:00,
2013-05-04 11:42:00,72.3,50.9,29.71,WNW,284,3.0,7.0,47,0.00,,,0.00,meteohub,2013-05-04 18:42:00,
2013-05-04 11:47:00,72.1,50.7,29.71,West,279,2.0,8.0,47,0.00,,,0.00,meteohub,2013-05-04 18:47:00,
2013-05-04 11:52:00,72.3,51.4,29.71,West,279,2.0,8.0,48,0.00,,,0.00,meteohub,2013-05-04 18:52:00,
2013-05-04 11:57:00,72.7,51.3,29.71,North,5,2.0,8.0,47,0.00,,,0.00,meteohub,2013-05-04 18:57:00,
2013-05-04 12:02:00,71.4,50.7,29.70,ENE,62,2.0,12.0,48,0.00,,,0.00,meteohub,2013-05-04 19:02:00,
2013-05-04 12:07:00,70.7,50.5,29.70,West,279,3.0,12.0,49,0.00,,,0.00,meteohub,2013-05-04 19:07:00,
2013-05-04 12:12:00,71.1,51.4,29.70,West,279,2.0,12.0,50,0.00,,,0.00,meteohub,2013-05-04 19:12:00,
2013-05-04 12:17:00,72.1,51.4,29.70,WNW,290,5.0,12.0,48,0.00,,,0.00,meteohub,2013-05-04 19:17:00,
2013-05-04 12:22:00,72.5,51.1,29.70,West,279,4.0,12.0,47,0.00,,,0.00,meteohub,2013-05-04 19:22:00,
2013-05-04 12:27:00,72.3,50.9,29.70,West,279,2.0,8.0,47,0.00,,,0.00,meteohub,2013-05-04 19:27:00,
2013-05-04 12:32:00,72.5,51.6,29.69,West,279,4.0,8.0,48,0.00,,,0.00,meteohub,2013-05-04 19:32:00,
2013-05-04 12:37:00,73.0,51.6,29.69,WNW,301,0.0,8.0,47,0.00,,,0.00,meteohub,2013-05-04 19:37:00,
2013-05-04 12:47:00,73.9,50.7,29.68,West,279,2.0,7.0,44,0.00,,,0.00,meteohub,2013-05-04 19:47:00,
2013-05-04 12:52:00,74.1,49.6,29.68,ENE,63,1.0,7.0,42,0.00,,,0.00,meteohub,2013-05-04 19:52:00,
2013-05-04 12:57:00,74.8,50.2,29.68,West,279,2.0,7.0,42,0.00,,,0.00,meteohub,2013-05-04 19:57:00,
2013-05-04 13:02:00,74.8,49.6,29.68,West,279,1.0,8.0,41,0.00,,,0.00,meteohub,2013-05-04 20:02:00,
2013-05-04 13:07:00,75.4,50.0,29.67,West,279,2.0,8.0,41,0.00,,,0.00,meteohub,2013-05-04 20:07:00,
2013-05-04 13:12:00,75.6,48.9,29.67,ENE,57,3.0,10.0,39,0.00,,,0.00,meteohub,2013-05-04 20:12:00,
2013-05-04 13:17:00,75.7,49.1,29.67,West,279,2.0,10.0,39,0.00,,,0.00,meteohub,2013-05-04 20:17:00,
2013-05-04 13:22:00,75.6,47.5,29.67,ENE,75,4.0,10.0,37,0.00,,,0.00,meteohub,2013-05-04 20:22:00,
2013-05-04 13:27:00,75.6,48.2,29.67,West,279,3.0,7.0,38,0.00,,,0.00,meteohub,2013-05-04 20:27:00,
2013-05-04 13:32:00,76.1,47.1,29.66,West,279,3.0,7.0,36,0.00,,,0.00,meteohub,2013-05-04 20:32:00,
2013-05-04 13:37:00,75.7,46.9,29.66,West,279,4.0,8.0,36,0.00,,,0.00,meteohub,2013-05-04 20:37:00,
2013-05-04 13:42:00,75.0,45.5,29.66,West,279,4.0,8.0,35,0.00,,,0.00,meteohub,2013-05-04 20:42:00,
2013-05-04 13:47:00,75.0,45.5,29.66,West,279,3.0,9.0,35,0.00,,,0.00,meteohub,2013-05-04 20:47:00,
2013-05-04 13:52:00,75.0,47.7,29.66,West,279,6.0,9.0,38,0.00,,,0.00,meteohub,2013-05-04 20:52:00,
2013-05-04 13:57:00,74.8,50.2,29.65,West,279,3.0,9.0,42,0.00,,,0.00,meteohub,2013-05-04 20:57:00,
2013-05-04 14:02:00,74.8,51.4,29.66,West,279,5.0,9.0,44,0.00,,,0.00,meteohub,2013-05-04 21:02:00,
2013-05-04 14:07:00,73.9,50.7,29.66,West,279,3.0,9.0,44,0.00,,,0.00,meteohub,2013-05-04 21:07:00,
2013-05-04 14:12:00,73.6,50.9,29.66,West,279,6.0,10.0,45,0.00,,,0.00,meteohub,2013-05-04 21:12:00,
2013-05-04 14:17:00,72.1,50.2,29.66,West,279,4.0,11.0,46,0.00,,,0.00,meteohub,2013-05-04 21:17:00,
2013-05-04 14:22:00,70.9,50.7,29.65,West,279,4.0,11.0,49,0.00,,,0.00,meteohub,2013-05-04 21:22:00,
2013-05-04 14:27:00,71.2,51.6,29.66,West,279,4.0,11.0,50,0.00,,,0.00,meteohub,2013-05-04 21:27:00,
2013-05-04 14:32:00,70.3,51.8,29.65,West,279,7.0,11.0,52,0.00,,,0.00,meteohub,2013-05-04 21:32:00,
2013-05-04 14:37:00,70.0,52.0,29.65,ENE,68,5.0,11.0,53,0.00,,,0.00,meteohub,2013-05-04 21:37:00,
2013-05-04 14:42:00,69.6,52.7,29.65,West,279,7.0,13.0,55,0.00,,,0.00,meteohub,2013-05-04 21:42:00,
2013-05-04 14:47:00,68.7,52.0,29.65,ENE,74,7.0,14.0,55,0.00,,,0.00,meteohub,2013-05-04 21:47:00,
2013-05-04 14:52:00,67.8,52.9,29.65,West,279,5.0,14.0,59,0.00,,,0.00,meteohub,2013-05-04 21:52:00,
2013-05-04 14:57:00,67.6,53.2,29.65,West,279,5.0,14.0,60,0.00,,,0.00,meteohub,2013-05-04 21:57:00,
2013-05-04 15:02:00,67.5,53.1,29.65,West,279,4.0,14.0,60,0.00,,,0.00,meteohub,2013-05-04 22:02:00,
2013-05-04 15:07:00,66.7,53.2,29.64,West,279,4.0,13.0,62,0.00,,,0.00,meteohub,2013-05-04 22:07:00,
2013-05-04 15:12:00,66.0,53.1,29.64,East,97,9.0,13.0,63,0.00,,,0.00,meteohub,2013-05-04 22:12:00,
2013-05-04 15:17:00,65.7,53.2,29.64,West,279,5.0,16.0,64,0.00,,,0.00,meteohub,2013-05-04 22:17:00,
2013-05-04 15:22:00,65.8,52.9,29.64,West,279,5.0,16.0,63,0.00,,,0.00,meteohub,2013-05-04 22:22:00,
2013-05-04 15:27:00,65.7,52.7,29.64,West,279,6.0,16.0,63,0.00,,,0.00,meteohub,2013-05-04 22:27:00,
2013-05-04 15:32:00,65.5,53.1,29.64,West,279,6.0,13.0,64,0.00,,,0.00,meteohub,2013-05-04 22:32:00,
2013-05-04 15:37:00,64.0,53.2,29.64,West,279,10.0,19.0,68,0.00,,,0.00,meteohub,2013-05-04 22:37:00,
2013-05-04 15:42:00,63.9,53.4,29.64,West,279,5.0,19.0,69,0.00,,,0.00,meteohub,2013-05-04 22:42:00,
2013-05-04 15:47:00,64.4,53.6,29.64,West,279,6.0,19.0,68,0.00,,,0.00,meteohub,2013-05-04 22:47:00,
2013-05-04 15:52:00,64.4,53.6,29.63,West,279,4.0,16.0,68,0.00,,,0.00,meteohub,2013-05-04 22:52:00,
2013-05-04 15:57:00,63.7,52.9,29.63,West,279,11.0,17.0,68,0.00,,,0.00,meteohub,2013-05-04 22:57:00,
2013-05-04 16:02:00,63.1,53.6,29.63,West,279,7.0,17.0,71,0.00,,,0.00,meteohub,2013-05-04 23:02:00,
2013-05-04 16:07:00,63.5,53.6,29.62,West,279,5.0,13.0,70,0.00,,,0.00,meteohub,2013-05-04 23:07:00,
2013-05-04 16:12:00,63.9,53.4,29.62,WNW,300,5.0,13.0,69,0.00,,,0.00,meteohub,2013-05-04 23:12:00,
2013-05-04 16:17:00,63.1,53.2,29.62,West,279,12.0,14.0,70,0.00,,,0.00,meteohub,2013-05-04 23:17:00,
2013-05-04 16:22:00,62.8,53.2,29.62,West,279,9.0,14.0,71,0.00,,,0.00,meteohub,2013-05-04 23:22:00,
2013-05-04 16:27:00,62.4,53.2,29.62,West,279,4.0,14.0,72,0.00,,,0.00,meteohub,2013-05-04 23:27:00,
2013-05-04 16:32:00,62.8,53.2,29.62,West,279,6.0,14.0,71,0.00,,,0.00,meteohub,2013-05-04 23:32:00,
2013-05-04 16:37:00,62.2,53.1,29.62,West,281,6.0,14.0,72,0.00,,,0.00,meteohub,2013-05-04 23:37:00,
2013-05-04 16:42:00,61.7,52.9,29.62,West,279,3.0,15.0,73,0.00,,,0.00,meteohub,2013-05-04 23:42:00,
2013-05-04 16:47:00,62.2,53.4,29.62,NNW,340,4.0,15.0,73,0.00,,,0.00,meteohub,2013-05-04 23:47:00,
2013-05-04 16:52:00,62.4,53.2,29.62,West,279,5.0,15.0,72,0.00,,,0.00,meteohub,2013-05-04 23:52:00,
2013-05-04 16:57:00,62.4,53.2,29.62,West,280,4.0,13.0,72,0.00,,,0.00,meteohub,2013-05-04 23:57:00,
2013-05-04 17:02:00,62.1,52.9,29.62,West,279,3.0,13.0,72,0.00,,,0.00,meteohub,2013-05-05 00:02:00,
2013-05-04 17:07:00,61.9,53.1,29.62,West,279,3.0,12.0,73,0.00,,,0.00,meteohub,2013-05-05 00:07:00,
2013-05-04 17:12:00,61.9,53.1,29.62,West,279,5.0,12.0,73,0.00,,,0.00,meteohub,2013-05-05 00:12:00,
2013-05-04 17:17:00,61.3,53.1,29.62,West,279,7.0,12.0,74,0.00,,,0.00,meteohub,2013-05-05 00:17:00,
2013-05-04 17:22:00,61.2,53.2,29.62,West,279,4.0,13.0,75,0.00,,,0.00,meteohub,2013-05-05 00:22:00,
2013-05-04 17:27:00,60.6,53.1,29.61,West,279,8.0,13.0,76,0.00,,,0.00,meteohub,2013-05-05 00:27:00,
2013-05-04 17:32:00,60.4,52.9,29.61,NW,311,7.0,16.0,76,0.00,,,0.00,meteohub,2013-05-05 00:32:00,
2013-05-04 17:37:00,60.3,53.1,29.61,West,279,9.0,16.0,77,0.00,,,0.00,meteohub,2013-05-05 00:37:00,
2013-05-04 17:42:00,59.7,52.5,29.61,WNW,282,14.0,15.0,77,0.00,,,0.00,meteohub,2013-05-05 00:42:00,
2013-05-04 17:47:00,59.7,52.9,29.60,WNW,284,6.0,15.0,78,0.00,,,0.00,meteohub,2013-05-05 00:47:00,
2013-05-04 17:52:00,59.7,52.9,29.61,WNW,294,3.0,15.0,78,0.00,,,0.00,meteohub,2013-05-05 00:52:00,
2013-05-04 17:57:00,59.7,53.2,29.61,West,279,4.0,15.0,79,0.00,,,0.00,meteohub,2013-05-05 00:57:00,
2013-05-04 18:02:00,59.7,52.9,29.61,West,279,10.0,13.0,78,0.00,,,0.00,meteohub,2013-05-05 01:02:00,
2013-05-04 18:07:00,59.9,53.1,29.61,West,279,7.0,13.0,78,0.00,,,0.00,meteohub,2013-05-05 01:07:00,
2013-05-04 18:12:00,60.3,53.4,29.60,West,279,4.0,13.0,78,0.00,,,0.00,meteohub,2013-05-05 01:12:00,
2013-05-04 18:17:00,60.3,52.7,29.60,West,280,5.0,13.0,76,0.00,,,0.00,meteohub,2013-05-05 01:17:00,
2013-05-04 18:22:00,60.1,52.9,29.60,West,279,6.0,12.0,77,0.00,,,0.00,meteohub,2013-05-05 01:22:00,
2013-05-04 18:27:00,60.3,53.1,29.60,West,279,3.0,12.0,77,0.00,,,0.00,meteohub,2013-05-05 01:27:00,
2013-05-04 18:32:00,60.4,53.2,29.60,West,279,4.0,12.0,77,0.00,,,0.00,meteohub,2013-05-05 01:32:00,
2013-05-04 18:37:00,59.9,52.7,29.61,West,279,5.0,12.0,77,0.00,,,0.00,meteohub,2013-05-05 01:37:00,
2013-05-04 18:42:00,59.2,52.7,29.61,West,279,9.0,14.0,79,0.00,,,0.00,meteohub,2013-05-05 01:42:00,
2013-05-04 18:47:00,59.2,52.7,29.61,West,279,5.0,15.0,79,0.00,,,0.00,meteohub,2013-05-05 01:47:00,
2013-05-04 18:52:00,58.8,52.3,29.61,West,279,4.0,15.0,79,0.00,,,0.00,meteohub,2013-05-05 01:52:00,
2013-05-04 18:57:00,58.3,52.2,29.61,West,279,4.0,13.0,80,0.00,,,0.00,meteohub,2013-05-05 01:57:00,
2013-05-04 19:02:00,58.3,52.2,29.62,ENE,78,3.0,13.0,80,0.00,,,0.00,meteohub,2013-05-05 02:02:00,
2013-05-04 19:07:00,58.5,52.3,29.62,West,279,0.0,12.0,80,0.00,,,0.00,meteohub,2013-05-05 02:07:00,
2013-05-04 19:12:00,58.3,52.2,29.62,West,279,2.0,12.0,80,0.00,,,0.00,meteohub,2013-05-05 02:12:00,
2013-05-04 19:17:00,57.9,51.8,29.62,West,279,7.0,15.0,80,0.00,,,0.00,meteohub,2013-05-05 02:17:00,
2013-05-04 19:22:00,57.9,52.2,29.62,West,279,5.0,15.0,81,0.00,,,0.00,meteohub,2013-05-05 02:22:00,
2013-05-04 19:27:00,57.9,51.8,29.62,West,279,5.0,15.0,80,0.00,,,0.00,meteohub,2013-05-05 02:27:00,
2013-05-04 19:32:00,57.6,51.8,29.61,West,279,4.0,10.0,81,0.00,,,0.00,meteohub,2013-05-05 02:32:00,
2013-05-04 19:37:00,57.4,52.0,29.61,NW,309,5.0,14.0,82,0.00,,,0.00,meteohub,2013-05-05 02:37:00,
2013-05-04 19:42:00,57.6,51.8,29.62,NNW,339,4.0,14.0,81,0.00,,,0.00,meteohub,2013-05-05 02:42:00,
2013-05-04 19:47:00,57.4,51.6,29.62,West,279,5.0,13.0,81,0.00,,,0.00,meteohub,2013-05-05 02:47:00,
2013-05-04 19:52:00,57.4,52.0,29.62,West,281,6.0,13.0,82,0.00,,,0.00,meteohub,2013-05-05 02:52:00,
2013-05-04 19:57:00,57.2,51.8,29.62,West,279,0.0,12.0,82,0.00,,,0.00,meteohub,2013-05-05 02:57:00,
2013-05-04 20:02:00,57.6,52.2,29.62,West,279,0.0,12.0,82,0.00,,,0.00,meteohub,2013-05-05 03:02:00,
2013-05-04 20:07:00,57.6,51.8,29.62,West,279,5.0,12.0,81,0.00,,,0.00,meteohub,2013-05-05 03:07:00,
2013-05-04 20:12:00,57.4,51.6,29.62,West,279,2.0,8.0,81,0.00,,,0.00,meteohub,2013-05-05 03:12:00,
2013-05-04 20:17:00,57.0,51.6,29.62,West,279,0.0,7.0,82,0.00,,,0.00,meteohub,2013-05-05 03:17:00,
2013-05-04 20:22:00,57.4,52.0,29.62,West,279,2.0,7.0,82,0.00,,,0.00,meteohub,2013-05-05 03:22:00,
2013-05-04 20:27:00,57.6,51.8,29.62,West,279,0.0,7.0,81,0.00,,,0.00,meteohub,2013-05-05 03:27:00,
2013-05-04 20:32:00,57.7,51.6,29.62,West,279,3.0,6.0,80,0.00,,,0.00,meteohub,2013-05-05 03:32:00,
2013-05-04 20:37:00,57.9,51.1,29.62,West,279,2.0,4.0,78,0.00,,,0.00,meteohub,2013-05-05 03:37:00,
2013-05-04 20:42:00,58.6,51.4,29.62,West,279,1.0,7.0,77,0.00,,,0.00,meteohub,2013-05-05 03:42:00,
2013-05-04 20:47:00,58.6,51.1,29.63,West,279,3.0,7.0,76,0.00,,,0.00,meteohub,2013-05-05 03:47:00,
2013-05-04 20:52:00,58.3,51.1,29.63,West,279,4.0,8.0,77,0.00,,,0.00,meteohub,2013-05-05 03:52:00,
2013-05-04 20:57:00,57.9,50.7,29.63,West,279,2.0,8.0,77,0.00,,,0.00,meteohub,2013-05-05 03:57:00,
2013-05-04 21:02:00,57.7,50.9,29.64,West,279,3.0,7.0,78,0.00,,,0.00,meteohub,2013-05-05 04:02:00,
2013-05-04 21:07:00,58.1,51.3,29.64,West,279,4.0,8.0,78,0.00,,,0.00,meteohub,2013-05-05 04:07:00,
2013-05-04 21:12:00,57.9,50.7,29.64,West,279,3.0,9.0,77,0.00,,,0.00,meteohub,2013-05-05 04:12:00,
2013-05-04 21:17:00,57.9,50.7,29.64,West,279,3.0,9.0,77,0.00,,,0.00,meteohub,2013-05-05 04:17:00,
2013-05-04 21:22:00,57.7,50.9,29.64,NE,37,1.0,9.0,78,0.00,,,0.00,meteohub,2013-05-05 04:22:00,
2013-05-04 21:27:00,57.9,51.1,29.65,West,279,0.0,8.0,78,0.00,,,0.00,meteohub,2013-05-05 04:27:00,
2013-05-04 21:32:00,58.3,51.1,29.65,West,279,1.0,7.0,77,0.00,,,0.00,meteohub,2013-05-05 04:32:00,
2013-05-04 21:37:00,57.9,50.7,29.65,West,279,3.0,8.0,77,0.00,,,0.00,meteohub,2013-05-05 04:37:00,
2013-05-04 21:42:00,57.7,50.9,29.65,West,279,0.0,8.0,78,0.00,,,0.00,meteohub,2013-05-05 04:42:00,
2013-05-04 21:47:00,57.9,51.1,29.65,West,279,4.0,7.0,78,0.00,,,0.00,meteohub,2013-05-05 04:47:00,
2013-05-04 21:52:00,57.7,50.9,29.65,West,279,0.0,9.0,78,0.00,,,0.00,meteohub,2013-05-05 04:52:00,
2013-05-04 21:57:00,58.5,51.3,29.65,West,279,0.0,9.0,77,0.00,,,0.00,meteohub,2013-05-05 04:57:00,
2013-05-04 22:02:00,58.5,50.9,29.65,West,279,1.0,8.0,76,0.00,,,0.00,meteohub,2013-05-05 05:02:00,
2013-05-04 22:07:00,58.5,50.9,29.65,West,279,5.0,6.0,76,0.00,,,0.00,meteohub,2013-05-05 05:07:00,
2013-05-04 22:12:00,58.1,50.5,29.65,West,279,2.0,6.0,76,0.00,,,0.00,meteohub,2013-05-05 05:12:00,
2013-05-04 22:17:00,57.9,50.4,29.65,West,279,2.0,6.0,76,0.00,,,0.00,meteohub,2013-05-05 05:17:00,
2013-05-04 22:22:00,57.9,50.7,29.65,West,279,1.0,6.0,77,0.00,,,0.00,meteohub,2013-05-05 05:22:00,
2013-05-04 22:27:00,58.5,50.9,29.65,West,279,2.0,5.0,76,0.00,,,0.00,meteohub,2013-05-05 05:27:00,
2013-05-04 22:32:00,58.5,50.5,29.65,West,279,0.0,8.0,75,0.00,,,0.00,meteohub,2013-05-05 05:32:00,
2013-05-04 22:37:00,58.3,50.4,29.65,West,279,5.0,8.0,75,0.00,,,0.00,meteohub,2013-05-05 05:37:00,
2013-05-04 22:42:00,58.1,50.2,29.65,West,279,3.0,8.0,75,0.00,,,0.00,meteohub,2013-05-05 05:42:00,
2013-05-04 22:47:00,57.9,50.0,29.65,West,279,3.0,7.0,75,0.00,,,0.00,meteohub,2013-05-05 05:47:00,
2013-05-04 22:52:00,57.9,50.0,29.65,West,279,0.0,7.0,75,0.00,,,0.00,meteohub,2013-05-05 05:52:00,
2013-05-04 22:57:00,58.3,50.4,29.65,West,279,0.0,7.0,75,0.00,,,0.00,meteohub,2013-05-05 05:57:00,
2013-05-04 23:02:00,58.3,50.4,29.65,West,279,0.0,7.0,75,0.00,,,0.00,meteohub,2013-05-05 06:02:00,
2013-05-04 23:07:00,58.5,50.2,29.65,West,279,0.0,4.0,74,0.00,,,0.00,meteohub,2013-05-05 06:07:00,
2013-05-04 23:12:00,58.5,50.2,29.65,West,279,1.0,4.0,74,0.00,,,0.00,meteohub,2013-05-05 06:12:00,
2013-05-04 23:17:00,58.5,49.8,29.65,North,5,0.0,4.0,73,0.00,,,0.00,meteohub,2013-05-05 06:17:00,
2013-05-04 23:22:00,58.5,49.5,29.65,ENE,62,3.0,5.0,72,0.00,,,0.00,meteohub,2013-05-05 06:22:00,
2013-05-04 23:27:00,58.1,49.1,29.65,ENE,71,4.0,7.0,72,0.00,,,0.00,meteohub,2013-05-05 06:27:00,
2013-05-04 23:32:00,57.7,48.7,29.65,ENE,73,3.0,7.0,72,0.00,,,0.00,meteohub,2013-05-05 06:32:00,
2013-05-04 23:37:00,57.7,48.7,29.65,ENE,77,2.0,10.0,72,0.00,,,0.00,meteohub,2013-05-05 06:37:00,
2013-05-04 23:42:00,57.6,48.6,29.65,East,88,7.0,10.0,72,0.00,,,0.00,meteohub,2013-05-05 06:42:00,
2013-05-04 23:47:00,57.6,48.6,29.65,East,88,6.0,10.0,72,0.00,,,0.00,meteohub,2013-05-05 06:47:00,
2013-05-04 23:52:00,58.3,48.9,29.65,East,91,9.0,16.0,71,0.00,,,0.00,meteohub,2013-05-05 06:52:00,
2013-05-04 23:57:00,57.7,48.4,29.65,East,86,7.0,16.0,71,0.00,,,0.00,meteohub,2013-05-05 06:57:00,